SCP
0 0 0 0 0 0 0 0 0 0 0 0 0 0 0 0 0 0 0 0 0 0 0 0 0 0 0 0 0 0 0 0 0 0 0 0 0 0 0 0 0 0 0
0 0 0 0 0 0 0 0 0 0 0 0 0 0 0 0 0 0 0 0 0 0 0 0 0 0 0 0 0 0 0 0 0 0 0 0 0 0 0 0 0 0 0
0 0 0 0 0 0 0 0 0 0 0 0 0 0 0 0 0 0 0 0 0 0 0 0 0 0 0 0 0 0 0 0 0 0 0 0 0 0 0 0 0 0 0
0 0 0 0 0 0 0 0 0 0 0 0 0 0 0 0 0 0 0 0 0 0 0 0 0 0 0 0 0 0 0 0 0 0 0 0 0 0 0 0 0 0 0
0 0 0 0 0 0 0 0 0 0 0 0 0 0 0 0 0 0 0 0 0 0 0 0 0 0 0 0 0 0 0 0 0 0 0 0 0 0 0 0 0 0 0
0 0 0 0 0 0 0 0 0 0 0 0 0 0 0 0 0 0 0 0 0 0 0 0 0 0 0 0 0 0 0 0 0 0 0 0 0 0 0 0 0 0 0
0 0 0 0 0 0 0 0 0 0 0 0 0 0 0 0 0 0 0 0 0 0 0 0 0 0 0 0 0 0 0 0 0 0 0 0 0 0 0 0 0 0 0
0 0 0 0 0 0 0 0 0 0 0 0 0 0 0 0 0 0 0 0 0 0 0 0 0 0 0 0 0 0 0 0 0 0 0 0 0 0 0 0 0 0 0
0 0 0 0 0 0 0 0 0 0 0 0 0 0 0 0 0 0 0 0 0 0 0 0 0 0 0 0 0 0 0 0 0 0 0 0 0 0 0 0 0 0 0
0 0 0 0 0 0 0 0 0 0 0 0 0 0 0 0 0 0 0 0 0 0 0 0 0 0 0 0 0 0 0 0 0 0 0 0 0 0 0 0 0 0 0
0 0 0 0 0 0 0 0 0 0 0 0 0 0 0 0 0 0 0 0 0 0 0 0 0 0 0 0 0 0 0 0 0 0 0 0 0 0 0 0 0 0 0
0 0 0 0 0 0 0 0 0 0 0 0 0 0 0 0 0 0 0 0 0 0 0 0 0 0 0 0 0 0 0 0 0 0 0 0 0 0 0 0 0 0 0
0 0 0 0 0 0 0 0 0 0 0 0 0 0 0 0 0 0 0 0 0 0 0 0 0 0 0 0 0 0 0 0 0 0 0 0 0 0 0 0 0 0 0
0 0 0 0 0 0 0 0 0 0 0 0 0 0 0 0 0 0 0 0 0 0 0 0 0 0 0 0 0 0 0 0 0 0 0 0 0 0 0 0 0 0 0
0 0 0 0 0 0 0 0 0 0 0 0 0 0 0 0 0 0 0 0 0 0 0 0 0 0 0 0 0 0 0 0 0 0 0 0 0 0 0 -0 0 0 0
-0 0 0 0 0 0 0 0 0 0 0 0 0 0 0 0 0 0 0 0 0 0 0 0 0 0 0 0 0 0 0 0 0 0 0 0 0 0 -0 -0 0 0 0
0 0 0 0 0 0 0 0 0 0 0 0 0 0 0 0 0 0 0 0 0 0 0 0 0 0 0 0 0 0 0 0 0 0 0 0 0 0 0 0 0 0 0
0 0 0 0 0 0 0 0 0 0 0 0 0 0 0 0 0 0 0 0 0 0 0 0 0 0 0 0 0 0 0 0 0 0 0 0 0 0 0 0 0 0 0
0 0 0 0 0 0 0 0 0 0 0 0 0 0 0 0 0 0 0 0 0 0 0 0 0 0 0 0 -0 0 0 0 0 0 0 0 0 0 0 0 0 0 -0
0 0 0 0 0 0 0 0 0 0 0 0 0 0 0 0 0 0 0 0 0 0 0 0 0 0 0 0 0 0 0 0 0 0 0 0 0 0 0 0 0 0 0
0 0 0 0 0 0 0 0 0 0 0 0 0 0 0 0 0 0 0 0 0 0 0 0 0 0 0 0 0 0 0 0 0 0 0 0 0 0 0 0 0 0 0
0 0 0 0 0 0 0 0 0 0 0 0 0 0 0 0 0 0 0 0 0 0 0 0 0 0 0 0 0 0 0 0 0 0 0 0 0 0 0 0 0 0 0
0 0 0 0 0 0 0 0 0 0 0 0 0 0 0 0 0 0 0 0 0 0 0 0 0 0 0 0 0 0 0 0 0 0 0 0 0 0 0 0 0 0 0
0 0 0 0 0 0 0 0 0 0 0 0 0 0 0 0 0 0 0 0 0 0 0 0 0 0 0 0 0 0 0 0 0 0 0 0 0 0 0 0 0 0 0
0 0 0 0 0 0 0 0 0 0 0 0 0 0 0 0 0 0 0 0 0 0 0 0 0 0 0 0 0 0 0 0 0 0 0 0 0 0 0 0 0 0 0
0 0 0 0 0 0 0 0 0 0 0 0 0 0 0 0 0 0 0 0 0 0 0 0 0 0 0 0 0 0 0 0 0 0 0 0 0 0 0 0 0 0 0
Wind_Speed_500mb
75 79 81 80 73 70 68 65 59 60 50 47 43 39 34 30 27 23 19 16 13 10 10 9 9 10 11 14 18 19 24 24 38 51 50 49 46 40 41 37 36 42 47
61 72 70 68 68 69 68 61 63 55 49 46 42 39 34 29 26 22 18 14 11 10 9 8 10 12 12 15 20 22 26 26 34 47 48 46 44 43 37 33 35 43 49
47 53 56 57 62 62 64 59 57 53 51 48 43 38 33 29 24 21 17 13 9 8 8 8 10 12 13 17 20 24 24 28 33 41 47 44 40 36 37 37 38 42 42
35 41 46 52 56 59 60 60 58 53 51 46 43 38 33 29 25 21 17 12 7 6 6 8 10 13 16 18 22 19 23 30 37 41 42 44 41 41 46 52 51 47 51
32 39 46 51 57 60 57 54 56 52 48 45 42 38 34 29 25 21 16 12 7 4 7 9 12 17 20 17 19 20 26 33 38 40 42 45 47 48 49 56 63 61 50
39 44 49 54 58 56 58 61 58 55 52 47 42 37 33 30 25 21 18 12 7 5 7 10 14 18 19 18 20 20 23 31 37 39 41 44 47 50 52 58 62 66 68
39 43 46 48 51 56 57 58 56 54 52 48 43 39 35 30 27 24 17 12 9 7 8 11 14 18 19 17 16 19 21 27 33 34 38 40 47 50 53 59 60 59 62
39 37 39 44 48 51 53 53 52 50 48 44 41 37 34 32 29 21 17 14 12 11 10 12 14 16 18 20 17 15 17 24 29 28 33 38 42 45 51 56 58 58 57
31 41 40 45 47 50 52 51 50 49 47 44 40 36 36 32 24 22 20 18 17 12 12 12 14 17 19 21 21 16 15 21 25 26 32 35 39 46 50 53 54 58 58
40 29 38 40 47 50 52 52 51 47 44 41 39 41 35 29 29 26 23 21 19 14 14 13 14 17 21 24 25 22 14 19 23 24 25 31 39 45 50 52 50 45 42
35 40 35 38 46 45 52 52 45 43 44 46 47 39 36 35 31 29 28 22 20 18 16 14 14 16 21 23 26 26 19 20 21 23 26 33 40 46 50 43 36 34 32
37 39 44 46 47 58 58 55 54 51 52 55 48 44 43 40 34 31 29 25 22 18 17 16 14 14 18 22 25 25 24 22 22 23 27 32 39 47 39 28 21 31 32
43 33 54 50 43 51 62 64 67 60 60 60 55 53 47 41 36 32 31 25 23 18 15 15 15 12 14 19 23 25 22 24 22 23 25 29 39 42 31 17 14 26 29
47 44 36 53 67 72 76 85 72 70 69 68 62 57 47 41 39 35 30 24 20 15 15 15 14 9 11 16 21 24 22 21 19 21 19 26 33 35 24 12 12 14 17
55 42 43 42 57 63 84 76 75 75 63 62 61 58 50 45 37 28 25 21 17 15 13 11 9 7 7 13 19 24 23 20 16 16 16 24 26 27 17 9 14 17 14
64 49 43 47 55 68 70 76 73 75 66 56 60 54 45 38 36 36 30 24 22 18 13 9 5 5 8 13 17 22 24 21 16 14 14 23 19 17 10 13 17 19 13
62 57 45 46 58 62 74 77 81 74 72 61 59 56 53 46 45 38 33 29 26 19 12 9 5 4 7 11 15 20 24 22 17 13 17 21 13 8 6 10 16 17 12
57 58 48 48 54 61 69 78 83 84 77 77 66 63 58 54 49 44 41 38 32 22 13 7 4 5 7 9 13 16 22 23 18 13 13 15 7 2 4 8 11 11 10
53 53 45 45 48 54 61 67 74 81 78 81 69 68 60 58 54 51 49 41 29 23 16 10 8 7 9 11 13 15 18 23 20 14 14 8 4 3 5 6 7 7 8
41 39 36 39 41 43 50 58 65 74 73 76 74 76 71 68 65 62 55 42 34 26 20 15 13 13 13 14 15 15 18 20 21 14 11 7 5 7 8 7 4 2 8
28 27 23 31 36 40 45 52 59 68 70 86 87 78 70 68 64 58 51 42 35 30 27 21 17 17 17 16 16 16 18 20 21 14 11 10 8 10 10 9 6 3 6
19 12 11 8 17 31 37 42 51 64 66 82 82 77 69 66 64 59 51 44 39 34 31 28 25 23 21 19 19 19 19 20 21 17 12 14 12 11 12 11 9 6 3
19 12 6 5 6 4 18 32 45 55 68 76 76 72 70 66 60 51 46 44 43 40 38 36 33 28 26 23 23 21 21 21 19 20 13 16 15 14 15 15 13 11 7
19 17 8 6 9 18 22 20 26 42 54 59 56 58 58 57 52 54 49 47 49 47 44 42 37 31 31 29 27 24 22 24 21 18 15 17 20 19 19 19 17 16 15
15 15 12 6 9 13 16 24 33 36 31 31 37 41 44 44 54 58 49 49 48 46 46 43 41 38 36 34 32 30 28 26 26 23 21 21 24 26 24 24 24 22 20
12 12 12 7 6 7 11 16 21 27 32 38 43 46 50 51 50 50 47 42 45 48 48 46 44 42 42 40 38 37 36 33 34 31 30 29 30 29 30 29 30 28 27
Wind_Direction_500mb
220 218 218 219 220 216 212 208 213 207 207 208 210 211 212 214 216 217 218 221 232 248 265 272 292 309 320 315 313 309 311 306 302 314 320 328 328 332 334 339 344 342 335
223 219 218 215 215 211 210 207 203 205 205 206 205 206 207 206 206 207 211 216 228 244 267 289 300 311 318 314 314 314 312 315 319 321 326 331 331 339 337 341 346 342 336
219 219 216 214 209 206 204 201 203 200 203 199 201 202 201 201 201 200 202 208 225 255 287 302 308 313 318 313 315 320 323 324 327 325 330 336 342 347 338 338 343 345 339
219 217 216 211 207 204 204 203 199 199 200 198 197 195 196 196 196 196 199 206 222 265 304 322 325 319 315 314 326 323 327 330 330 328 339 344 346 349 341 339 338 343 338
229 223 218 213 208 205 200 202 199 196 195 195 194 192 195 196 197 197 202 208 223 278 322 333 335 330 321 306 318 335 335 328 329 330 336 336 339 340 336 334 331 334 337
241 229 219 210 204 203 203 198 196 192 191 192 191 195 198 198 197 199 204 207 223 264 313 332 338 333 326 300 293 304 320 325 320 318 324 327 330 330 329 325 326 328 328
246 230 219 211 206 202 201 198 195 193 193 191 193 196 199 200 203 205 205 216 233 265 299 325 337 335 333 318 296 284 298 313 313 309 315 322 320 322 322 322 323 322 319
254 245 228 218 212 206 203 201 200 197 196 196 197 200 203 206 207 204 216 227 235 254 284 308 329 334 340 335 318 287 296 310 312 308 311 317 319 320 321 321 321 318 317
261 248 243 233 219 214 210 207 205 203 201 202 203 207 208 207 207 218 224 228 231 244 269 295 319 335 341 339 331 304 302 315 316 318 317 320 324 324 323 321 321 323 327
261 253 245 242 231 223 217 213 210 208 211 210 213 210 208 211 217 224 229 232 234 237 253 278 315 331 337 338 334 322 309 309 317 326 329 327 327 327 326 328 331 336 338
267 243 231 240 239 224 223 217 213 217 225 221 216 211 214 218 221 227 231 233 236 238 244 265 290 320 329 332 333 325 305 304 315 324 329 331 331 333 332 335 345 347 351
299 249 227 229 237 224 217 209 210 219 231 223 214 214 216 219 222 227 233 233 234 239 248 261 281 305 324 329 336 328 308 294 305 314 324 332 335 338 340 351 355 9 22
308 274 241 229 224 228 216 214 205 217 230 224 218 217 215 218 225 227 229 228 232 236 252 264 272 292 317 328 339 335 322 296 305 307 324 332 341 345 356 352 359 23 33
310 296 267 243 233 228 225 228 215 222 226 220 219 221 215 219 225 222 221 221 228 238 247 258 264 281 311 333 345 342 331 306 306 316 325 341 348 353 360 355 16 43 47
305 294 280 255 242 245 230 227 223 219 221 223 221 222 217 223 224 217 214 214 219 224 237 250 252 271 313 341 347 345 339 321 315 319 327 348 352 1 16 52 81 79 71
298 290 277 263 240 239 238 229 222 221 214 229 226 226 223 228 218 211 206 206 212 218 224 232 258 303 323 342 350 351 341 336 322 319 333 349 350 9 45 87 94 86 69
296 289 277 259 251 238 232 232 223 222 223 223 223 219 219 222 217 206 202 206 207 206 211 225 243 309 331 336 343 348 344 346 329 318 340 338 340 18 88 107 101 89 59
293 286 273 262 247 244 239 234 228 231 223 216 213 213 214 214 210 205 204 208 209 206 208 222 248 283 305 323 328 337 347 350 338 316 322 329 326 13 137 125 110 93 46
291 282 270 265 249 239 243 240 237 232 227 214 211 210 210 210 211 210 209 212 213 212 216 232 258 284 298 299 304 323 343 348 341 318 314 313 287 218 170 152 121 81 31
284 282 268 255 249 239 237 239 237 234 226 211 213 216 210 208 210 212 212 209 212 216 222 230 252 269 289 296 293 312 328 337 338 324 309 268 251 214 213 212 191 19 358
287 298 282 247 236 233 241 235 234 233 226 211 211 218 217 217 215 217 216 214 215 217 227 233 241 256 274 290 292 298 310 320 330 323 294 235 235 228 218 238 263 311 343
283 293 297 288 254 238 238 237 232 229 224 205 204 212 212 213 215 216 219 218 219 221 231 236 236 244 261 279 288 293 293 302 317 316 286 234 227 231 231 234 246 268 310
296 300 259 150 111 229 237 236 233 229 216 208 202 209 210 210 213 215 224 226 227 227 232 238 241 244 253 265 277 282 284 289 303 309 281 233 227 231 235 236 238 250 232
314 309 287 227 188 165 157 164 179 183 185 189 192 198 202 206 208 215 224 225 226 229 230 236 240 243 250 255 263 271 271 276 282 287 273 243 228 234 238 243 244 240 243
312 305 295 245 198 193 187 173 175 179 179 185 195 199 203 207 209 217 234 228 230 231 232 235 241 242 245 248 253 257 259 261 264 265 259 250 244 239 240 238 243 242 238
323 307 298 276 245 213 198 190 188 185 183 190 201 210 218 222 223 228 240 243 240 239 238 238 240 243 247 249 250 255 257 254 253 251 247 248 250 248 242 243 243 244 239
Wind_Speed_850mb
75 79 81 80 73 70 68 65 59 60 50 47 43 39 34 30 27 23 19 16 13 10 10 9 9 10 11 14 18 19 24 24 38 51 50 49 46 40 41 37 36 42 47
61 72 70 68 68 69 68 61 63 55 49 46 42 39 34 29 26 22 18 14 11 10 9 8 10 12 12 15 20 22 26 26 34 47 48 46 44 43 37 33 35 43 49
47 53 56 57 62 62 64 59 57 53 51 48 43 38 33 29 24 21 17 13 9 8 8 8 10 12 13 17 20 24 24 28 33 41 47 44 40 36 37 37 38 42 42
35 41 46 52 56 59 60 60 58 53 51 46 43 38 33 29 25 21 17 12 7 6 6 8 10 13 16 18 22 19 23 30 37 41 42 44 41 41 46 52 51 47 51
32 39 46 51 57 60 57 54 56 52 48 45 42 38 34 29 25 21 16 12 7 4 7 9 12 17 20 17 19 20 26 33 38 40 42 45 47 48 49 56 63 61 50
39 44 49 54 58 56 58 61 58 55 52 47 42 37 33 30 25 21 18 12 7 5 7 10 14 18 19 18 20 20 23 31 37 39 41 44 47 50 52 58 62 66 68
39 43 46 48 51 56 57 58 56 54 52 48 43 39 35 30 27 24 17 12 9 7 8 11 14 18 19 17 16 19 21 27 33 34 38 40 47 50 53 59 60 59 62
39 37 39 44 48 51 53 53 52 50 48 44 41 37 34 32 29 21 17 14 12 11 10 12 14 16 18 20 17 15 17 24 29 28 33 38 42 45 51 56 58 58 57
31 41 40 45 47 50 52 51 50 49 47 44 40 36 36 32 24 22 20 18 17 12 12 12 14 17 19 21 21 16 15 21 25 26 32 35 39 46 50 53 54 58 58
40 29 38 40 47 50 52 52 51 47 44 41 39 41 35 29 29 26 23 21 19 14 14 13 14 17 21 24 25 22 14 19 23 24 25 31 39 45 50 52 50 45 42
35 40 35 38 46 45 52 52 45 43 44 46 47 39 36 35 31 29 28 22 20 18 16 14 14 16 21 23 26 26 19 20 21 23 26 33 40 46 50 43 36 34 32
37 39 44 46 47 58 58 55 54 51 52 55 48 44 43 40 34 31 29 25 22 18 17 16 14 14 18 22 25 25 24 22 22 23 27 32 39 47 39 28 21 31 32
43 33 54 50 43 51 62 64 67 60 60 60 55 53 47 41 36 32 31 25 23 18 15 15 15 12 14 19 23 25 22 24 22 23 25 29 39 42 31 17 14 26 29
47 44 36 53 67 72 76 85 72 70 69 68 62 57 47 41 39 35 30 24 20 15 15 15 14 9 11 16 21 24 22 21 19 21 19 26 33 35 24 12 12 14 17
55 42 43 42 57 63 84 76 75 75 63 62 61 58 50 45 37 28 25 21 17 15 13 11 9 7 7 13 19 24 23 20 16 16 16 24 26 27 17 9 14 17 14
64 49 43 47 55 68 70 76 73 75 66 56 60 54 45 38 36 36 30 24 22 18 13 9 5 5 8 13 17 22 24 21 16 14 14 23 19 17 10 13 17 19 13
62 57 45 46 58 62 74 77 81 74 72 61 59 56 53 46 45 38 33 29 26 19 12 9 5 4 7 11 15 20 24 22 17 13 17 21 13 8 6 10 16 17 12
57 58 48 48 54 61 69 78 83 84 77 77 66 63 58 54 49 44 41 38 32 22 13 7 4 5 7 9 13 16 22 23 18 13 13 15 7 2 4 8 11 11 10
53 53 45 45 48 54 61 67 74 81 78 81 69 68 60 58 54 51 49 41 29 23 16 10 8 7 9 11 13 15 18 23 20 14 14 8 4 3 5 6 7 7 8
41 39 36 39 41 43 50 58 65 74 73 76 74 76 71 68 65 62 55 42 34 26 20 15 13 13 13 14 15 15 18 20 21 14 11 7 5 7 8 7 4 2 8
28 27 23 31 36 40 45 52 59 68 70 86 87 78 70 68 64 58 51 42 35 30 27 21 17 17 17 16 16 16 18 20 21 14 11 10 8 10 10 9 6 3 6
19 12 11 8 17 31 37 42 51 64 66 82 82 77 69 66 64 59 51 44 39 34 31 28 25 23 21 19 19 19 19 20 21 17 12 14 12 11 12 11 9 6 3
19 12 6 5 6 4 18 32 45 55 68 76 76 72 70 66 60 51 46 44 43 40 38 36 33 28 26 23 23 21 21 21 19 20 13 16 15 14 15 15 13 11 7
19 17 8 6 9 18 22 20 26 42 54 59 56 58 58 57 52 54 49 47 49 47 44 42 37 31 31 29 27 24 22 24 21 18 15 17 20 19 19 19 17 16 15
15 15 12 6 9 13 16 24 33 36 31 31 37 41 44 44 54 58 49 49 48 46 46 43 41 38 36 34 32 30 28 26 26 23 21 21 24 26 24 24 24 22 20
12 12 12 7 6 7 11 16 21 27 32 38 43 46 50 51 50 50 47 42 45 48 48 46 44 42 42 40 38 37 36 33 34 31 30 29 30 29 30 29 30 28 27
Wind_Direction_850mb
220 218 218 219 220 216 212 208 213 207 207 208 210 211 212 214 216 217 218 221 232 248 265 272 292 309 320 315 313 309 311 306 302 314 320 328 328 332 334 339 344 342 335
223 219 218 215 215 211 210 207 203 205 205 206 205 206 207 206 206 207 211 216 228 244 267 289 300 311 318 314 314 314 312 315 319 321 326 331 331 339 337 341 346 342 336
219 219 216 214 209 206 204 201 203 200 203 199 201 202 201 201 201 200 202 208 225 255 287 302 308 313 318 313 315 320 323 324 327 325 330 336 342 347 338 338 343 345 339
219 217 216 211 207 204 204 203 199 199 200 198 197 195 196 196 196 196 199 206 222 265 304 322 325 319 315 314 326 323 327 330 330 328 339 344 346 349 341 339 338 343 338
229 223 218 213 208 205 200 202 199 196 195 195 194 192 195 196 197 197 202 208 223 278 322 333 335 330 321 306 318 335 335 328 329 330 336 336 339 340 336 334 331 334 337
241 229 219 210 204 203 203 198 196 192 191 192 191 195 198 198 197 199 204 207 223 264 313 332 338 333 326 300 293 304 320 325 320 318 324 327 330 330 329 325 326 328 328
246 230 219 211 206 202 201 198 195 193 193 191 193 196 199 200 203 205 205 216 233 265 299 325 337 335 333 318 296 284 298 313 313 309 315 322 320 322 322 322 323 322 319
254 245 228 218 212 206 203 201 200 197 196 196 197 200 203 206 207 204 216 227 235 254 284 308 329 334 340 335 318 287 296 310 312 308 311 317 319 320 321 321 321 318 317
261 248 243 233 219 214 210 207 205 203 201 202 203 207 208 207 207 218 224 228 231 244 269 295 319 335 341 339 331 304 302 315 316 318 317 320 324 324 323 321 321 323 327
261 253 245 242 231 223 217 213 210 208 211 210 213 210 208 211 217 224 229 232 234 237 253 278 315 331 337 338 334 322 309 309 317 326 329 327 327 327 326 328 331 336 338
267 243 231 240 239 224 223 217 213 217 225 221 216 211 214 218 221 227 231 233 236 238 244 265 290 320 329 332 333 325 305 304 315 324 329 331 331 333 332 335 345 347 351
299 249 227 229 237 224 217 209 210 219 231 223 214 214 216 219 222 227 233 233 234 239 248 261 281 305 324 329 336 328 308 294 305 314 324 332 335 338 340 351 355 9 22
308 274 241 229 224 228 216 214 205 217 230 224 218 217 215 218 225 227 229 228 232 236 252 264 272 292 317 328 339 335 322 296 305 307 324 332 341 345 356 352 359 23 33
310 296 267 243 233 228 225 228 215 222 226 220 219 221 215 219 225 222 221 221 228 238 247 258 264 281 311 333 345 342 331 306 306 316 325 341 348 353 360 355 16 43 47
305 294 280 255 242 245 230 227 223 219 221 223 221 222 217 223 224 217 214 214 219 224 237 250 252 271 313 341 347 345 339 321 315 319 327 348 352 1 16 52 81 79 71
298 290 277 263 240 239 238 229 222 221 214 229 226 226 223 228 218 211 206 206 212 218 224 232 258 303 323 342 350 351 341 336 322 319 333 349 350 9 45 87 94 86 69
296 289 277 259 251 238 232 232 223 222 223 223 223 219 219 222 217 206 202 206 207 206 211 225 243 309 331 336 343 348 344 346 329 318 340 338 340 18 88 107 101 89 59
293 286 273 262 247 244 239 234 228 231 223 216 213 213 214 214 210 205 204 208 209 206 208 222 248 283 305 323 328 337 347 350 338 316 322 329 326 13 137 125 110 93 46
291 282 270 265 249 239 243 240 237 232 227 214 211 210 210 210 211 210 209 212 213 212 216 232 258 284 298 299 304 323 343 348 341 318 314 313 287 218 170 152 121 81 31
284 282 268 255 249 239 237 239 237 234 226 211 213 216 210 208 210 212 212 209 212 216 222 230 252 269 289 296 293 312 328 337 338 324 309 268 251 214 213 212 191 19 358
287 298 282 247 236 233 241 235 234 233 226 211 211 218 217 217 215 217 216 214 215 217 227 233 241 256 274 290 292 298 310 320 330 323 294 235 235 228 218 238 263 311 343
283 293 297 288 254 238 238 237 232 229 224 205 204 212 212 213 215 216 219 218 219 221 231 236 236 244 261 279 288 293 293 302 317 316 286 234 227 231 231 234 246 268 310
296 300 259 150 111 229 237 236 233 229 216 208 202 209 210 210 213 215 224 226 227 227 232 238 241 244 253 265 277 282 284 289 303 309 281 233 227 231 235 236 238 250 232
314 309 287 227 188 165 157 164 179 183 185 189 192 198 202 206 208 215 224 225 226 229 230 236 240 243 250 255 263 271 271 276 282 287 273 243 228 234 238 243 244 240 243
312 305 295 245 198 193 187 173 175 179 179 185 195 199 203 207 209 217 234 228 230 231 232 235 241 242 245 248 253 257 259 261 264 265 259 250 244 239 240 238 243 242 238
323 307 298 276 245 213 198 190 188 185 183 190 201 210 218 222 223 228 240 243 240 239 238 238 240 243 247 249 250 255 257 254 253 251 247 248 250 248 242 243 243 244 239